This demonstration page uses our WeatherBlox Daily Observations layout. Learn more.

Left ArrowRight Arrow

39.92423, -83.80882

Hourly Observations for August 1, 2021

Temp ( °F °C ) Dew Point ( °F °C ) Humidity (%) Winds ( mph kmh ) Pressure ( in mb ) Visibility ( mi km ) Precip ( " mm )
12:56 am 00:56 Clear 63 17 N/A N/A Calm 29.94 1014 10 16 0.01 0.25
1:56 am 01:56 Cloudy 61 16 N/A N/A SW 5 7 29.93 1014 10 16 0.00 0.00
2:56 am 02:56 Mostly Clear 63 17 N/A N/A W 7 11 29.93 1014 10 16 0.01 0.25
3:56 am 03:56 Clear 61 16.1 61 16.1 100 100 WNW 8 13 29.93 1014 10 16 0.00 0.00
4:56 am 04:56 Clear 59 15 N/A N/A WNW 5 7 29.93 1013 10 16 0.01 0.25
5:56 am 05:56 Clear 57 14 N/A N/A Calm 29.93 1013 10 16 0.01 0.25
6:56 am 06:56 Sunny 57 14 N/A N/A Calm 29.93 1014 8 13 0.00 0.00
7:56 am 07:56 Sunny 61 16 N/A N/A SW 5 7 29.93 1014 7 11 0.01 0.25
8:56 am 08:56 Sunny 64 17.8 64 17.8 100 100 W 6 9 29.95 1014 9 14 0.01 0.25
9:56 am 09:56 Sunny 68 20 66 18.9 93 93 W 8 13 29.96 1014 8 13 0.01 0.25
10:56 am 10:56 Mostly Sunny 72 22.2 67 19.4 84 84 WNW 9 15 29.96 1014 8 13 0.01 0.25
11:56 am 11:56 Mostly Sunny 75 23.9 69 20.6 82 82 W 9 15 29.96 1014 10 16 0.01 0.25
12:31 pm 12:31 Mostly Cloudy 75 24 68 20 78 78 W 13 20 29.91 1013 9 14 0.00 0.00
12:47 pm 12:47 Mostly Cloudy 75 24 68 20 78 78 WNW 13 20 29.91 1013 10 16 0.01 0.25
12:56 pm 12:56 Mostly Cloudy 76 24.4 68 20 77 77 W 14 22 29.94 1014 10 16 0.01 0.25
1:56 pm 13:56 Cloudy 77 25 67 19.4 71 71 WNW 15 24 29.93 1014 9 14 0.00 0.00
2:56 pm 14:56 Mostly Cloudy 74 23.3 69 20.6 85 85 NNW 8 13 29.93 1014 7 11 0.01 0.25
3:56 pm 15:56 Mostly Cloudy 78 25.6 65 18.3 64 64 NNW 15 24 29.94 1014 10 16 0.01 0.25
4:56 pm 16:56 Mostly Sunny 77 25 60 15.6 56 56 NNW 15 24 29.96 1015 10 16 0.00 0.00
5:56 pm 17:56 Partly Cloudy 77 25 58 14.4 52 52 NNW 14 22 29.96 1015 10 16 0.00 0.00
6:56 pm 18:56 Sunny 75 23.9 56 13.3 52 52 NNW 16 26 29.97 1015 10 16 0.00 0.00
7:56 pm 19:56 Sunny 71 21.7 57 13.9 61 61 NNW 9 15 29.99 1016 9 14 0.00 0.00
8:56 pm 20:56 Clear 67 19.4 58 14.4 73 73 NW 6 9 30.00 1016 8 13 0.00 0.00
9:56 pm 21:56 Clear 64 17.8 59 15 84 84 NNW 3 6 30.03 1017 9 14 0.00 0.00
10:56 pm 22:56 Clear 64 17.8 58 14.4 81 81 NNW 6 9 30.04 1017 9 14 0.00 0.00
11:56 pm 23:56 Clear 63 17.2 58 14.4 84 84 N 8 13 30.06 1018 8 13 0.00 0.00

Powered by AerisWeather